TimeEDT,TemperatureF,Dew PointF,Humidity,Sea Level PressureIn,VisibilityMPH,Wind Direction,Wind SpeedMPH,Gust SpeedMPH,PrecipitationIn,Events,Conditions,WindDirDegrees,DateUTC
12:53 AM,45.0,43.0,93,30.01,4.0,Calm,Calm,-,0.00,,Overcast,0,2012-10-28 04:53:00
1:53 AM,45.0,44.1,97,30.00,8.0,Calm,Calm,-,0.01,,Overcast,0,2012-10-28 05:53:00
2:09 AM,44.6,42.8,93,29.98,8.0,Variable,3.5,-,N/A,,Overcast,0,2012-10-28 06:09:00
2:53 AM,45.0,43.0,93,29.97,10.0,Calm,Calm,-,N/A,,Overcast,0,2012-10-28 06:53:00
3:53 AM,44.1,43.0,96,29.96,4.0,Calm,Calm,-,0.05,Rain,Light Rain,0,2012-10-28 07:53:00
4:53 AM,44.1,43.0,96,29.95,10.0,Calm,Calm,-,0.01,,Overcast,0,2012-10-28 08:53:00
5:53 AM,44.1,43.0,96,29.95,10.0,Variable,4.6,-,0.02,,Overcast,0,2012-10-28 09:53:00
6:53 AM,44.1,43.0,96,29.94,5.0,Variable,3.5,-,N/A,,Overcast,0,2012-10-28 10:53:00
7:53 AM,44.1,43.0,96,29.95,5.0,Calm,Calm,-,0.01,Rain,Light Rain,0,2012-10-28 11:53:00
8:53 AM,44.1,42.1,93,29.96,3.0,Variable,5.8,-,0.07,Rain,Heavy Rain,0,2012-10-28 12:53:00
9:00 AM,42.8,42.8,100,29.95,2.0,Calm,Calm,-,0.03,Rain,Heavy Rain,0,2012-10-28 13:00:00
9:14 AM,42.8,42.8,100,29.95,4.0,Variable,4.6,-,0.06,Rain,Light Rain,0,2012-10-28 13:14:00
9:53 AM,44.1,42.1,93,29.96,10.0,Variable,5.8,-,0.07,,Overcast,0,2012-10-28 13:53:00
10:53 AM,43.0,42.1,97,29.95,10.0,Variable,3.5,-,0.01,Rain,Light Rain,0,2012-10-28 14:53:00
11:53 AM,43.0,42.1,97,29.94,8.0,Variable,3.5,-,0.02,Rain,Light Rain,0,2012-10-28 15:53:00
12:53 PM,42.8,41.0,93,29.94,4.0,Variable,3.5,-,N/A,Rain,Light Rain,0,2012-10-28 16:53:00
12:59 PM,42.8,41.0,93,29.94,4.0,Variable,4.6,-,0.00,Rain,Rain,0,2012-10-28 16:59:00
1:12 PM,42.8,41.0,93,29.93,3.0,Variable,5.8,-,0.03,Rain,Rain,0,2012-10-28 17:12:00
1:27 PM,42.8,41.0,93,29.93,4.0,Variable,5.8,-,0.05,Rain,Rain,0,2012-10-28 17:27:00
1:53 PM,43.0,41.0,93,29.94,4.0,Variable,4.6,-,0.10,Rain,Rain,0,2012-10-28 17:53:00
2:19 PM,42.8,41.0,93,29.93,4.0,North,4.6,-,0.06,Rain,Rain,10,2012-10-28 18:19:00
2:53 PM,42.1,41.0,96,29.94,10.0,Variable,4.6,-,0.09,Rain,Light Rain,0,2012-10-28 18:53:00
3:12 PM,42.8,41.0,93,29.93,4.0,Variable,4.6,-,0.01,Rain,Rain,0,2012-10-28 19:12:00
3:27 PM,42.8,39.2,87,29.93,4.0,NNE,3.5,-,0.05,Rain,Rain,30,2012-10-28 19:27:00
3:39 PM,42.8,39.2,87,29.93,3.0,Variable,3.5,-,0.08,Rain,Rain,0,2012-10-28 19:39:00
3:49 PM,41.0,39.2,93,29.93,4.0,Variable,5.8,20.7,0.09,Rain,Rain,0,2012-10-28 19:49:00
3:53 PM,41.0,39.0,93,29.94,5.0,North,6.9,20.7,0.10,Rain,Rain,350,2012-10-28 19:53:00
4:05 PM,41.0,37.4,87,29.93,6.0,NNE,8.1,-,0.02,Rain,Rain,20,2012-10-28 20:05:00
4:46 PM,39.2,37.4,93,29.94,7.0,Variable,3.5,-,0.08,Rain,Light Rain,0,2012-10-28 20:46:00
4:53 PM,39.9,37.0,89,29.96,6.0,Variable,4.6,-,0.09,Rain,Light Rain,0,2012-10-28 20:53:00
5:53 PM,39.0,37.0,93,29.96,6.0,North,4.6,-,0.08,Rain,Light Rain,10,2012-10-28 21:53:00
6:00 PM,39.2,37.4,93,29.96,7.0,Variable,4.6,-,0.01,Rain,Light Rain,0,2012-10-28 22:00:00
6:07 PM,39.2,37.4,93,29.96,9.0,Variable,5.8,-,0.01,Rain,Light Rain,0,2012-10-28 22:07:00
6:18 PM,39.2,37.4,93,29.96,10.0,Calm,Calm,-,0.01,Rain,Light Rain,0,2012-10-28 22:18:00
6:28 PM,39.2,37.4,93,29.96,10.0,Variable,3.5,-,0.01,Rain,Light Rain,0,2012-10-28 22:28:00
6:53 PM,39.9,37.9,93,29.98,10.0,Variable,6.9,-,0.02,Rain,Light Rain,0,2012-10-28 22:53:00
7:53 PM,39.9,37.0,89,29.99,10.0,Variable,4.6,-,0.00,,Overcast,0,2012-10-28 23:53:00
8:36 PM,39.2,35.6,87,29.97,10.0,North,9.2,20.7,0.00,Rain,Light Rain,10,2012-10-29 00:36:00
8:53 PM,39.0,37.0,93,29.99,10.0,Variable,5.8,-,0.00,Rain,Light Rain,0,2012-10-29 00:53:00
9:21 PM,39.2,37.4,93,29.97,10.0,Calm,Calm,-,0.00,Rain,Light Rain,0,2012-10-29 01:21:00
9:50 PM,39.2,35.6,87,29.97,10.0,Variable,5.8,-,0.00,Rain,Light Rain,0,2012-10-29 01:50:00
9:53 PM,39.0,37.0,93,29.99,10.0,Variable,4.6,-,0.00,Rain,Light Rain,0,2012-10-29 01:53:00
10:06 PM,39.2,37.4,93,29.97,9.0,Variable,3.5,-,0.00,Rain,Light Rain,0,2012-10-29 02:06:00
10:41 PM,37.4,35.6,93,29.97,10.0,Variable,6.9,-,0.01,Rain,Light Rain,0,2012-10-29 02:41:00
10:53 PM,37.9,35.1,89,29.98,10.0,NNE,6.9,-,0.01,Rain,Light Rain,20,2012-10-29 02:53:00
11:00 PM,37.4,35.6,93,29.97,10.0,North,8.1,-,0.00,Rain,Light Rain,360,2012-10-29 03:00:00
11:53 PM,37.9,36.0,93,29.97,10.0,Variable,5.8,-,0.00,,Overcast,0,2012-10-29 03:53:00